Weather in Nikshich

Montenegro     42°46′23″N   18°57′28″E
temp.,
°C
wind,
m/s
gust,
m/s
humid.,
%
clouds,
%
prec.,
mm/h
press.,
hPa
HPBL,
m
9 may, sun
sun923:00+6nne336570 0.0 102234
02:00+5nne33615 0.0 102242
05:00+5nne33395 0.0 102229
08:00+11nne22433 0.0 1020120
11:00+18se11335 0.0 1019757
14:00+19s22355 0.0 10191117
17:00+17s33500 0.0 1020636
20:00+11e22650 0.0 102111
10 may, mon
mon1023:00+9ene22400 0.0 102210
02:00+9ene11575 0.0 102110
05:00+8ne217149 0.0 102110
08:00+14wsw006578 0.0 1021160
11:00+18sw225799 0.0 10201005
14:00+20ssw225364 0.0 10181502
17:00+19s325820 0.0 10171390
20:00+13sse22910 0.0 101814
11 may, tue
tue1123:00+12ne11920 0.0 101910
02:00+11ne21910 0.0 101810
05:00+10ne22890 0.0 101710
08:00+15se017560 0.0 1016186
11:00+19s225782 0.0 10151023
14:00+20s43560 0.0 10131420
17:00+18s44640 0.0 10121165
20:00+13sse33943 0.0 101342
12 may, wed
wed1223:00+11ese349839 0.0 1012104
02:00+10ese34956 0.0 101198
05:00+8se349078 0.0 101080
08:00+10sse51090100 0.3 1008622
11:00+10ssw249995 3.4 1009301
14:00+14s58654 4.3 10081446
17:00+13ssw510521 0.2 10081616
20:00+8s228712 0.2 100925
13 may, thu
thu1323:00+9s1278100 0.0 101053
02:00+8sse2288100 0.2 100966
05:00+7s249571 0.3 1008178
08:00+8sse4691100 0.8 1009676
11:00+8s469882 1.4 1009448
14:00+10ssw478482 3.1 1010949
17:00+11ssw587256 0.9 10091276
20:00+6sse359599 1.8 101197